Content
SEND FEEDBACK

Daily
Averages
Monthly
Summary
United States of America

MERIZO, GUAM


Home > North America > United States > Guam
Elevation: 10 feet     Latitude: 13 14N     Longitude: 144 39E

WEATHER
 
SELECT A DAY
Number of Records: 341,794;   Date Range: 1/1/95 - 7/23/14
 
SHARE

PRINT THIS DATA

[ ← Previous Day ]
WEATHER ALMANAC - MAY 26, 2013
[ Next Day → ]
[ °C ]   °F
Weather ElementAverageHighLow
Temperature81.5 °F86.9 °F (11:55 am)76.5 °F (5:55 am)
Dewpoint73.7 °F75.2 °F (8:09 pm)69.8 °F (5:46 am)
Humidity77.8 %87 % (2:55 am)60 % (2:55 pm)
Barometer29.87 in29.91 in (7:55 am)29.80 in (3:55 pm)
Wind Speed12 mph17.3 mph (10:55 am)
Wind Gust21.9 mph (5:42 am)
Weather ElementAverage
Visibility9.9 mi
Wind DirectionENE (77.3 °)

Weather ElementTotal
Precipitation---
Cooling Degree Days16.7 (Base 65)
Growing Degree Days31.7 (Base 50)
Averaged from 44 records on May 26, 2013
WEATHER CONDITIONS BREAKOUT
WIND DIRECTION BREAKOUT
WEATHER BY HOUR - MAY 26, 2013
[ °C ]   °F
Local TimeTemperatureDewpointHumidityBarometerVisibilityWind DirectionWind SpeedGust SpeedPrecipitationEventsConditions
1:55 AM79.0 °F74.5 °F86 %29.87 in10.0 miEast (80°)10.4 mphScattered Clouds
2:55 AM78.8 °F74.7 °F87 %29.86 in10.0 miEast (80°)9.2 mphClear
3:55 AM79.0 °F73.6 °F83 %29.87 in10.0 miEast (90°)8.1 mphClear
4:55 AM79.0 °F73.6 °F83 %29.87 in10.0 miENE (70°)11.5 mphPartly Cloudy
5:13 AM78.8 °F73.4 °F83 %29.88 in10.0 miENE (70°)10.4 mphMostly Cloudy
5:42 AM78.8 °F71.6 °F78 %29.88 in7.0 miEast (100°)11.5 mph21.9 mphRainLight Rain
5:46 AM77.0 °F69.8 °F78 %29.88 in7.0 miEast (100°)8.1 mphRainLight Rain
5:52 AM77.0 °F69.8 °F78 %29.88 in10.0 miEast (100°)6.9 mphMostly Cloudy
5:55 AM76.5 °F70.5 °F82 %29.88 in10.0 miEast (100°)6.9 mph0.00 inMostly Cloudy
6:55 AM79.3 °F72.0 °F78 %29.89 in10.0 miEast (80°)12.7 mphClear
7:55 AM81.9 °F73.0 °F74 %29.91 in10.0 miEast (90°)10.4 mphClear
8:55 AM85.3 °F72.7 °F66 %29.91 in10.0 miEast (80°)15.0 mphPartly Cloudy
9:55 AM86.2 °F73.6 °F66 %29.90 in10.0 miENE (70°)15.0 mphScattered Clouds
10:55 AM86.5 °F74.3 °F67 %29.88 in10.0 miEast (80°)17.3 mphPartly Cloudy
11:55 AM86.9 °F73.2 °F64 %29.86 in10.0 miESE (110°)13.8 mphPartly Cloudy
12:55 PM86.4 °F73.6 °F66 %29.85 in10.0 miEast (90°)13.8 mphScattered Clouds
1:55 PM86.9 °F72.7 °F62 %29.83 in10.0 miEast (100°)15.0 mphPartly Cloudy
2:55 PM86.9 °F71.6 °F60 %29.82 in10.0 miEast (90°)16.1 mph21.9 mphClear
3:55 PM85.5 °F73.0 °F66 %29.80 in10.0 miEast (90°)12.7 mphScattered Clouds
4:55 PM84.0 °F73.2 °F70 %29.81 in10.0 miEast (90°)13.8 mphScattered Clouds
5:55 PM82.4 °F73.6 °F75 %29.84 in10.0 miEast (90°)11.5 mphMostly Cloudy
5:58 PM82.4 °F73.4 °F74 %29.83 in10.0 miEast (80°)11.5 mphMostly Cloudy
6:01 PM82.4 °F73.4 °F74 %29.84 in10.0 miEast (80°)12.7 mphScattered Clouds
6:02 PM82.4 °F73.4 °F74 %29.84 in10.0 miEast (80°)12.7 mphMostly Cloudy
6:25 PM82.4 °F73.4 °F74 %29.84 in10.0 miEast (80°)10.4 mphScattered Clouds
6:55 PM81.1 °F73.8 °F78 %29.84 in10.0 miEast (80°)11.5 mphScattered Clouds
7:55 PM81.0 °F74.3 °F80 %29.86 in10.0 miENE (60°)8.1 mphScattered Clouds
8:09 PM80.6 °F75.2 °F84 %29.86 in10.0 miENE (60°)10.4 mphMostly Cloudy
8:13 PM80.6 °F75.2 °F84 %29.86 in10.0 miNE (50°)12.7 mphMostly Cloudy
8:22 PM80.6 °F75.2 °F84 %29.87 in10.0 miNE (40°)11.5 mphMostly Cloudy
8:24 PM80.6 °F75.2 °F84 %29.87 in10.0 miNNE (30°)11.5 mphRainLight Rain
8:36 PM80.6 °F75.2 °F84 %29.87 in10.0 miEast (80°)11.5 mphMostly Cloudy
8:55 PM80.2 °F73.8 °F81 %29.88 in10.0 miEast (80°)11.5 mph0.00 inPartly Cloudy
9:55 PM80.8 °F74.1 °F80 %29.89 in10.0 miENE (60°)12.7 mphScattered Clouds
10:55 PM81.0 °F74.3 °F80 %29.89 in10.0 miEast (80°)13.8 mphScattered Clouds
11:03 PM80.6 °F75.2 °F84 %29.90 in10.0 miEast (80°)13.8 mphMostly Cloudy
11:31 PM80.6 °F75.2 °F84 %29.89 in10.0 miENE (70°)12.7 mphScattered Clouds
11:33 PM80.6 °F75.2 °F84 %29.89 in10.0 miENE (70°)12.7 mphMostly Cloudy
11:44 PM80.6 °F75.2 °F84 %29.89 in10.0 miENE (70°)12.7 mphScattered Clouds
11:46 PM80.6 °F75.2 °F84 %29.89 in10.0 miENE (60°)13.8 mphMostly Cloudy
11:48 PM80.6 °F75.2 °F84 %29.89 in10.0 miENE (70°)12.7 mphScattered Clouds
11:53 PM80.6 °F75.2 °F84 %29.89 in10.0 miENE (60°)12.7 mphMostly Cloudy
11:55 PM80.6 °F74.7 °F82 %29.89 in10.0 miENE (70°)12.7 mphMostly Cloudy
11:58 PM80.6 °F75.2 °F84 %29.89 in10.0 miENE (60°)11.5 mphScattered Clouds
Hourly data recorded from PGUA, located miles away from Merizo, Guam







STORIES FROM OUR PARTNERS